�N����,����,�~����,�C��,���x,�C��,����,���ϕ���,�ő�u�ԕ���,�ő厞����,���˗�,�I�_���x,�n�����x,�ő啗���N��,DTYPE
"20/01/08","00:10",0.0,7.5,97.6,1010.9,295.2,0.7,1.0,230.6,0.00,7.2,7.9,"00:00:02",1
"20/01/08","00:20",0.0,7.3,98.0,1010.7,305.6,0.6,1.0,335.7,0.00,7.0,8.0,"00:12:20",1
"20/01/08","00:30",0.0,7.5,97.6,1010.4,277.0,0.6,1.0,254.6,0.00,7.2,8.0,"00:23:36",1
"20/01/08","00:40",0.0,7.4,98.0,1010.0,28.3,0.3,0.9,307.3,0.00,7.1,7.9,"00:31:14",1
"20/01/08","00:50",0.0,7.5,97.7,1009.7,287.6,0.7,1.0,320.7,0.00,7.2,8.0,"00:43:54",1
"20/01/08","01:00",0.0,7.4,98.1,1010.0,304.1,1.1,1.7,345.7,0.00,7.2,7.9,"00:54:48",1
"20/01/08","01:10",0.0,7.6,97.6,1009.5,275.4,0.7,1.3,268.6,0.00,7.3,8.0,"01:01:04",1
"20/01/08","01:20",0.0,7.5,98.1,1009.3,313.4,0.8,1.2,334.3,0.00,7.3,8.0,"01:15:18",1
"20/01/08","01:30",0.0,7.7,97.7,1009.0,316.8,0.8,1.7,340.7,0.00,7.4,7.8,"01:20:40",1
"20/01/08","01:40",0.0,7.6,98.1,1008.8,318.5,1.0,1.6,325.3,0.00,7.4,8.0,"01:31:02",1
"20/01/08","01:50",0.0,7.7,97.7,1008.3,273.5,0.5,0.9,261.1,0.00,7.4,8.1,"01:46:22",1
"20/01/08","02:00",0.0,7.6,98.1,1007.8,302.5,0.6,1.0,349.2,0.00,7.4,8.1,"01:54:54",1
"20/01/08","02:10",0.0,7.8,97.7,1008.1,281.8,0.7,1.0,288.5,0.00,7.5,7.9,"02:07:32",1
"20/01/08","02:20",0.0,7.7,98.2,1007.8,307.2,0.7,1.6,334.0,0.00,7.5,8.1,"02:19:58",1
"20/01/08","02:30",0.0,7.9,97.7,1007.8,321.1,1.2,1.9,322.0,0.00,7.6,8.1,"02:21:22",1
"20/01/08","02:40",0.0,7.8,98.2,1007.4,253.2,0.6,1.4,235.1,0.00,7.6,8.2,"02:36:36",1
"20/01/08","02:50",0.0,8.0,97.8,1007.6,259.5,0.7,1.2,310.2,0.00,7.7,8.0,"02:47:34",1
"20/01/08","03:00",0.0,7.9,98.2,1007.4,121.6,0.3,1.1,249.2,0.00,7.7,8.3,"02:50:42",1
"20/01/08","03:10",0.0,8.0,97.8,1006.9,231.4,0.5,1.0,306.4,0.00,7.7,7.9,"03:07:44",1
"20/01/08","03:20",0.0,7.9,98.3,1006.4,253.3,1.0,1.4,241.2,0.00,7.7,8.1,"03:17:18",1
"20/01/08","03:30",0.0,8.1,97.8,1006.2,264.6,1.1,1.6,233.5,0.00,7.8,8.2,"03:24:08",1
"20/01/08","03:40",0.0,7.9,98.3,1005.7,298.7,1.3,2.2,359.4,0.00,7.7,8.3,"03:37:16",1
"20/01/08","03:50",0.0,8.0,97.9,1005.2,298.5,0.7,1.7,327.6,0.00,7.7,8.3,"03:49:58",1
"20/01/08","04:00",0.0,7.9,98.3,1005.0,280.8,0.8,1.4,325.1,0.00,7.7,8.3,"03:50:14",1
"20/01/08","04:10",0.0,8.1,97.9,1003.8,317.5,0.8,1.6,332.8,0.00,7.8,8.2,"04:02:24",1
"20/01/08","04:20",0.0,7.9,98.4,1003.4,301.9,1.0,2.0,322.7,0.00,7.7,8.2,"04:16:56",1
"20/01/08","04:30",0.0,8.2,97.9,1003.4,299.6,1.2,2.4,319.7,0.00,7.9,8.3,"04:20:38",1
"20/01/08","04:40",0.0,8.1,98.4,1002.9,319.9,0.7,2.4,324.3,0.00,7.9,8.3,"04:38:32",1
"20/01/08","04:50",0.0,8.3,97.9,1002.6,280.6,0.7,1.4,237.5,0.00,8.0,8.3,"04:43:16",1
"20/01/08","05:00",0.0,8.1,98.4,1002.2,296.4,0.6,1.1,244.7,0.00,7.9,8.2,"04:50:26",1
"20/01/08","05:10",0.0,8.2,98.0,1002.4,301.1,0.7,1.4,338.9,0.00,7.9,8.1,"05:01:56",1
"20/01/08","05:20",0.0,8.2,97.9,1001.7,332.7,1.0,1.4,337.0,0.00,7.9,8.2,"05:14:28",1
"20/01/08","05:30",0.0,8.0,98.4,1001.7,249.9,0.8,1.7,315.9,0.00,7.8,8.4,"05:20:12",1
"20/01/08","05:40",0.0,8.2,98.1,1001.7,265.6,0.6,1.2,269.5,0.00,8.0,8.3,"05:38:38",1
"20/01/08","05:50",0.0,8.2,98.0,1000.8,313.3,1.1,2.0,343.1,0.00,7.9,8.3,"05:47:32",1
"20/01/08","06:00",0.2,8.3,98.0,1000.3,305.8,1.3,1.8,312.6,0.00,8.0,8.2,"05:52:04",1
"20/01/08","06:10",0.2,8.5,98.0,1000.8,303.0,1.3,1.8,325.5,0.00,8.2,7.9,"06:00:10",1
"20/01/08","06:20",0.8,8.6,98.0,1001.0,326.7,1.1,1.6,333.3,0.00,8.3,8.2,"06:19:40",1
"20/01/08","06:30",1.2,8.8,98.0,1000.5,319.2,2.0,2.5,318.8,0.00,8.5,8.3,"06:21:24",1
"20/01/08","06:40",1.2,8.9,97.9,1000.0,298.9,1.5,2.0,306.1,0.00,8.6,8.3,"06:35:34",1
"20/01/08","06:50",1.0,9.0,98.4,1000.3,257.7,1.1,1.4,244.7,0.00,8.8,8.3,"06:44:28",1
"20/01/08","07:00",1.4,9.4,97.9,999.6,313.6,1.0,1.6,304.0,0.00,9.1,8.3,"06:56:48",1
"20/01/08","07:10",1.2,9.3,98.3,999.1,336.5,1.0,1.8,316.9,0.00,9.1,8.3,"07:08:26",1
"20/01/08","07:20",1.0,9.3,97.9,999.1,303.1,1.0,1.7,304.9,0.00,9.0,8.4,"07:11:54",1
"20/01/08","07:30",1.6,9.3,98.4,999.3,293.0,1.0,1.7,266.3,0.00,9.1,8.4,"07:25:50",1
"20/01/08","07:40",3.8,9.7,98.0,1000.0,279.9,1.1,2.0,290.4,0.00,9.4,8.4,"07:32:30",1
"20/01/08","07:50",1.2,10.0,97.8,1000.3,43.6,0.8,2.0,309.6,0.00,9.7,8.5,"07:42:22",1
"20/01/08","08:00",0.4,9.9,98.3,1000.3,309.8,1.2,2.7,308.0,0.00,9.7,8.6,"07:52:42",1
"20/01/08","08:10",0.6,10.1,97.9,999.8,222.1,0.8,2.0,234.4,0.00,9.8,8.5,"08:09:36",1
"20/01/08","08:20",0.2,10.1,98.4,1000.0,232.2,1.3,2.5,243.5,0.00,9.9,8.6,"08:10:16",1
"20/01/08","08:30",0.0,10.1,97.9,999.8,297.6,0.7,1.3,319.5,0.00,9.8,8.6,"08:29:10",1
"20/01/08","08:40",0.8,10.0,98.5,1000.3,253.2,1.2,3.5,209.9,0.00,9.8,8.7,"08:39:44",1
"20/01/08","08:50",0.6,10.2,98.0,1000.5,186.5,2.1,4.2,206.4,0.00,9.9,8.6,"08:41:04",1
"20/01/08","09:00",0.2,10.3,97.9,1000.0,151.6,0.8,2.1,129.7,0.00,10.0,8.7,"08:56:02",1
"20/01/08","09:10",0.2,10.2,98.4,1000.0,56.7,0.6,1.3,140.0,0.01,10.0,8.7,"09:00:24",1
"20/01/08","09:20",0.0,10.5,98.0,1000.0,75.2,0.7,1.1,294.3,0.06,10.2,8.6,"09:11:22",1
"20/01/08","09:30",0.0,10.5,98.0,1000.0,191.7,1.2,2.6,127.8,0.01,10.2,8.8,"09:29:06",1
"20/01/08","09:40",0.0,10.6,98.0,1000.3,122.0,1.6,3.4,128.1,0.04,10.3,8.8,"09:30:50",1
"20/01/08","09:50",0.0,10.8,98.0,1000.0,129.5,1.3,2.4,128.8,0.06,10.5,8.9,"09:41:36",1
"20/01/08","10:00",0.0,11.1,97.9,1000.0,91.8,1.7,2.4,125.5,0.08,10.8,8.9,"09:52:48",1
"20/01/08","10:10",0.0,11.1,98.3,999.8,143.2,1.2,2.5,119.2,0.06,10.9,8.9,"10:04:14",1
"20/01/08","10:20",0.0,11.4,98.0,1000.3,52.2,0.8,1.8,127.5,0.07,11.1,9.1,"10:10:52",1
"20/01/08","10:30",0.0,11.6,97.8,1000.3,332.4,1.6,3.5,234.8,0.06,11.3,9.2,"10:29:46",1
"20/01/08","10:40",0.0,12.2,98.4,999.8,191.9,2.2,5.8,160.5,0.17,12.0,9.1,"10:35:12",1
"20/01/08","10:50",0.0,13.4,96.6,1000.5,298.1,3.9,11.9,331.8,0.34,12.9,9.2,"10:43:28",1
"20/01/08","11:00",0.0,14.3,94.9,1000.0,284.5,4.9,13.2,337.9,0.42,13.5,9.5,"10:54:24",1
"20/01/08","11:10",0.0,15.1,93.5,1000.0,288.0,3.4,8.7,325.1,0.39,14.1,9.7,"11:02:40",1
"20/01/08","11:20",0.0,16.0,91.0,1000.5,285.4,2.8,8.8,234.0,0.40,14.6,10.0,"11:14:56",1
"20/01/08","11:30",0.0,16.5,84.3,1000.0,273.3,3.5,9.6,349.1,0.36,13.9,9.9,"11:27:12",1
"20/01/08","11:40",0.0,16.8,74.2,999.6,262.1,3.7,9.5,258.2,0.40,12.2,10.2,"11:38:32",1
"20/01/08","11:50",0.0,17.0,69.1,999.3,295.5,3.6,9.5,341.8,0.45,11.3,10.5,"11:40:56",1
"20/01/08","12:00",0.0,16.6,67.5,998.6,272.5,3.9,10.6,358.7,0.30,10.6,10.6,"11:54:24",1
"20/01/08","12:10",0.0,16.0,67.3,998.4,297.3,4.1,11.2,219.4,0.10,10.0,10.8,"12:08:48",1
"20/01/08","12:20",0.0,15.9,68.0,998.6,293.4,3.7,7.9,295.8,0.16,10.0,10.7,"12:12:16",1
"20/01/08","12:30",0.0,16.2,66.4,997.9,286.0,3.1,6.2,336.9,0.20,10.0,10.7,"12:25:20",1
"20/01/08","12:40",0.0,15.7,65.7,997.9,262.6,3.4,6.7,257.2,0.07,9.3,10.9,"12:39:12",1
"20/01/08","12:50",0.0,15.6,64.5,997.4,273.9,3.9,8.9,217.0,0.12,9.0,10.8,"12:40:16",1
"20/01/08","13:00",0.0,15.9,63.5,997.4,270.3,4.2,8.9,329.0,0.26,9.0,10.9,"12:52:32",1
"20/01/08","13:10",0.0,15.8,63.3,997.4,265.9,3.6,6.5,337.3,0.22,8.9,11.0,"13:05:04",1
"20/01/08","13:20",0.0,15.5,63.2,997.4,284.5,3.7,9.0,342.7,0.21,8.6,11.2,"13:14:24",1
"20/01/08","13:30",0.0,15.2,64.0,997.4,262.0,4.1,9.3,230.0,0.13,8.5,11.0,"13:22:16",1
"20/01/08","13:40",0.0,14.9,63.9,997.4,279.5,3.7,9.0,307.3,0.11,8.2,11.1,"13:31:12",1
"20/01/08","13:50",0.0,14.5,64.7,997.2,285.5,3.5,10.8,228.8,0.05,8.0,11.0,"13:49:44",1
"20/01/08","14:00",0.0,14.5,64.6,997.2,274.7,4.1,7.4,293.0,0.11,8.0,11.0,"13:52:48",1
"20/01/08","14:10",0.0,14.5,64.1,997.4,258.2,3.9,8.9,252.8,0.13,7.8,10.9,"14:01:20",1
"20/01/08","14:20",0.0,14.4,64.6,997.7,264.5,3.5,8.7,263.1,0.08,7.9,11.1,"14:16:34",1
"20/01/08","14:30",0.0,14.1,65.1,997.7,258.5,3.9,7.4,259.3,0.09,7.7,10.9,"14:29:44",1
"20/01/08","14:40",0.0,14.0,66.1,997.7,249.0,4.4,9.4,249.4,0.08,7.8,11.0,"14:34:56",1
"20/01/08","14:50",0.0,13.9,66.3,997.9,255.3,3.1,5.7,235.2,0.07,7.8,10.9,"14:46:56",1
"20/01/08","15:00",0.0,14.1,67.0,997.4,253.9,3.9,8.1,237.6,0.11,8.1,10.9,"14:51:44",1
"20/01/08","15:10",0.0,14.2,66.1,997.7,249.8,4.0,7.3,237.2,0.14,8.0,10.9,"15:04:24",1
"20/01/08","15:20",0.0,13.8,66.7,997.7,260.3,3.7,7.5,304.1,0.05,7.8,10.7,"15:18:08",1
"20/01/08","15:30",0.0,13.9,67.3,997.9,273.0,3.0,5.9,250.9,0.07,8.0,10.9,"15:21:52",1
"20/01/08","15:40",0.0,13.9,66.8,997.7,263.7,2.8,5.4,255.8,0.05,7.9,10.8,"15:34:08",1
"20/01/08","15:50",0.0,14.2,66.4,997.7,259.7,2.8,6.3,300.6,0.09,8.1,10.7,"15:40:02",1
"20/01/08","16:00",0.0,14.2,65.2,998.2,254.4,3.0,5.8,228.3,0.04,7.8,10.9,"15:50:40",1
"20/01/08","16:10",0.0,14.1,64.4,998.2,273.4,3.1,5.5,285.7,0.03,7.5,10.8,"16:05:28",1
"20/01/08","16:20",0.0,14.2,63.3,998.4,268.1,3.2,6.3,353.2,0.02,7.4,10.5,"16:10:32",1
"20/01/08","16:30",0.0,14.2,61.9,998.6,281.6,2.8,9.0,320.8,0.02,7.0,10.7,"16:26:24",1
"20/01/08","16:40",0.0,14.3,59.9,998.9,299.2,3.6,7.3,265.1,0.01,6.7,10.7,"16:34:24",1
"20/01/08","16:50",0.0,14.1,59.3,999.3,305.1,4.4,8.6,333.1,0.00,6.3,10.7,"16:44:24",1
"20/01/08","17:00",0.0,13.9,60.0,999.3,289.7,3.6,8.6,338.4,0.00,6.3,10.7,"16:50:16",1
"20/01/08","17:10",0.0,13.6,60.8,999.6,288.7,3.9,6.7,261.3,0.00,6.2,10.8,"17:09:36",1
"20/01/08","17:20",0.0,13.3,61.4,999.3,293.3,4.0,7.2,299.6,0.00,6.1,10.6,"17:15:56",1
"20/01/08","17:30",0.0,13.2,61.8,999.6,292.9,4.0,8.7,343.9,0.00,6.1,10.5,"17:27:38",1
"20/01/08","17:40",0.0,13.1,61.2,999.8,291.3,3.4,6.3,244.9,0.00,5.8,10.3,"17:30:16",1
"20/01/08","17:50",0.0,12.9,61.6,999.8,292.2,2.8,5.8,318.2,0.00,5.7,10.3,"17:42:48",1
"20/01/08","18:00",0.0,12.8,61.0,1000.0,292.8,3.6,6.6,306.8,0.00,5.5,10.3,"17:58:26",1
"20/01/08","18:10",0.0,12.7,60.7,1000.5,291.6,3.4,5.7,333.8,0.00,5.3,10.3,"18:05:46",1
"20/01/08","18:20",0.0,12.7,60.1,1000.5,289.0,3.7,7.2,301.2,0.00,5.2,10.2,"18:18:46",1
"20/01/08","18:30",0.0,12.6,60.0,1000.5,291.0,3.6,7.0,280.5,0.00,5.1,10.3,"18:27:14",1
"20/01/08","18:40",0.0,12.4,61.1,1000.8,309.1,3.5,7.0,333.4,0.00,5.2,10.1,"18:30:48",1
"20/01/08","18:50",0.0,12.1,62.5,1001.2,303.4,3.2,6.2,277.2,0.00,5.2,10.2,"18:49:18",1
"20/01/08","19:00",0.0,11.9,64.5,1001.7,310.3,3.2,8.8,330.0,0.00,5.5,10.1,"18:57:08",1
"20/01/08","19:10",0.0,11.4,67.9,1001.7,322.4,3.7,5.5,334.3,0.00,5.7,10.0,"19:02:42",1
"20/01/08","19:20",0.0,11.3,69.0,1001.7,317.7,3.9,6.4,336.5,0.00,5.9,9.9,"19:19:18",1
"20/01/08","19:30",0.0,11.4,67.2,1001.9,312.9,4.4,8.5,331.5,0.00,5.6,10.1,"19:27:26",1
"20/01/08","19:40",0.0,11.5,65.0,1002.4,313.0,6.5,12.0,338.6,0.00,5.2,9.9,"19:35:16",1
"20/01/08","19:50",0.0,10.8,67.9,1003.1,329.2,6.4,14.0,335.6,0.00,5.2,10.0,"19:42:44",1
"20/01/08","20:00",0.0,10.5,70.0,1002.9,328.2,6.2,11.0,348.8,0.00,5.3,9.8,"19:50:36",1
"20/01/08","20:10",0.0,10.2,71.6,1003.6,307.1,4.5,7.8,341.6,0.00,5.3,9.8,"20:05:38",1
"20/01/08","20:20",0.0,10.2,72.3,1004.1,323.9,4.6,7.0,342.5,0.00,5.5,9.7,"20:15:32",1
"20/01/08","20:30",0.2,9.9,73.9,1004.1,330.1,3.6,6.3,343.6,0.00,5.5,9.4,"20:29:02",1
"20/01/08","20:40",0.0,9.2,76.6,1004.1,331.4,4.2,7.7,328.7,0.00,5.3,9.4,"20:33:58",1
"20/01/08","20:50",0.2,9.0,78.5,1004.1,327.6,3.9,5.9,326.3,0.00,5.5,9.7,"20:47:46",1
"20/01/08","21:00",0.0,8.9,80.3,1004.5,319.9,3.9,6.8,347.7,0.00,5.7,9.5,"20:53:34",1
"20/01/08","21:10",0.0,8.7,81.8,1004.5,308.2,3.4,5.1,311.9,0.00,5.8,9.3,"21:06:30",1
"20/01/08","21:20",0.0,8.6,82.6,1004.5,320.2,4.2,7.2,333.9,0.00,5.8,9.3,"21:19:52",1
"20/01/08","21:30",0.0,8.6,82.9,1004.8,321.9,3.9,6.2,330.8,0.00,5.9,9.3,"21:24:32",1
"20/01/08","21:40",0.0,8.7,82.6,1005.0,323.4,4.7,7.9,336.4,0.00,5.9,9.3,"21:34:58",1
"20/01/08","21:50",0.0,8.6,81.8,1005.5,316.9,4.7,8.7,317.1,0.00,5.7,9.2,"21:48:10",1
"20/01/08","22:00",0.0,8.6,81.4,1005.5,306.5,3.9,6.4,309.6,0.00,5.6,9.2,"21:52:08",1
"20/01/08","22:10",0.0,8.5,81.2,1005.5,312.6,5.1,8.9,322.4,0.00,5.5,9.3,"22:03:36",1
"20/01/08","22:20",0.2,8.4,81.6,1005.7,318.8,5.0,10.6,323.0,0.00,5.5,9.1,"22:11:24",1
"20/01/08","22:30",0.0,8.2,82.1,1005.5,301.6,3.9,7.8,322.4,0.00,5.4,9.1,"22:23:00",1
"20/01/08","22:40",0.0,8.2,82.5,1005.7,309.2,4.4,6.5,330.2,0.00,5.4,9.0,"22:36:30",1
"20/01/08","22:50",0.0,8.2,83.0,1006.2,307.7,4.4,7.5,321.9,0.00,5.5,9.0,"22:46:58",1
"20/01/08","23:00",0.0,8.1,83.6,1006.0,311.6,4.9,8.6,332.2,0.00,5.5,8.9,"22:52:22",1
"20/01/08","23:10",0.0,8.1,84.0,1006.0,293.5,4.1,6.2,317.9,0.00,5.6,8.7,"23:02:28",1
"20/01/08","23:20",0.0,8.1,84.3,1006.0,303.3,3.6,6.5,320.9,0.00,5.7,8.8,"23:19:56",1
"20/01/08","23:30",0.0,8.0,84.6,1006.4,303.0,3.2,5.5,317.1,0.00,5.6,8.7,"23:23:00",1
"20/01/08","23:40",0.0,8.2,84.4,1006.2,327.0,5.5,8.3,323.4,0.00,5.8,8.7,"23:35:02",1
"20/01/08","23:50",0.0,8.3,83.9,1006.4,320.9,5.1,10.1,332.0,0.00,5.8,8.8,"23:45:00",1
"20/01/08","24:00",0.0,8.4,83.4,1006.9,327.8,5.0,5.0,327.8,0.00,5.8,8.7,"23:54:16",1
